Погода в Шевченко

Россия / Республика Адыгея     44°53′49″N   39°31′22″E
темп.,
°C
ветер,
м/с
пор.,
м/с
влажн.,
%
обл.,
%
осадки,
мм/ч
давл.,
гПа
погр.,
м
25 января, пн
пн2500:00+3юв2372100 0.0 101924
03:00+4ююв3471100 0.0 101838
06:00+3юв3470100 0.0 101937
09:00+3юв346883 0.0 101945
12:00+6юв338717 0.0 101841
15:00+7в34789 0.0 101632
18:00+4в457137 0.0 101652
21:00+4юв347069 0.0 101532
26 января, вт
вт2600:00+5ю2374100 0.0 101523
03:00+8ююз71955100 0.0 1015376
06:00+8ю71677100 0.1 1017379
09:00+7ююз41181100 0.1 1018251
12:00+10ююз21177100 0.0 1018569
15:00+12вюв357585 0.0 1017144
18:00+7в587379 0.0 1017118
21:00+7вюв467788 0.0 101693
27 января, ср
ср2700:00+6вюв238099 0.0 101640
03:00+7вюв347499 0.0 101431
06:00+7вюв2370100 0.0 101226
09:00+7вюв3370100 0.0 101138
12:00+10в3468100 0.0 1009128
15:00+11всв3669100 0.0 1007208
18:00+8в3376100 0.0 100736
21:00+7в3476100 0.0 100749
28 января, чт
чт2800:00+6всв4480100 0.0 100680
03:00+7всв3480100 0.0 100665
06:00+8з2471100 0.0 100560
09:00+8в2281100 0.0 100530
12:00+10вюв2373100 0.1 1005219
15:00+11ююв4876100 0.8 1004794
18:00+9зюз3791100 1.8 1006389
21:00+7сз5894100 7.0 1006494
29 января, пт
пт2900:00+6зсз4881100 1.2 1007740
03:00+4сз4782100 1.3 1009621
06:00+4з4775100 0.0 1010612
09:00+4зюз2475100 0.0 1012530
12:00+6зюз796468 0.1 10111351
15:00+7юз8126178 0.6 10101671
18:00+5юз612681 0.0 1011635
21:00+4ююз8166824 0.0 10101092